East Haven, CT

4:43 AM EST on December 10, 2016 (GMT -0500)
Tweed-New Haven

Weather History for KHVN - March, 2013

Change the Weather History Date:

Friday, March 15, 2013

  Actual Average Record
Temperature  
Mean Temperature 36 °F -  
Max Temperature 43 °F 42 °F 80 °F (1990)
Min Temperature 30 °F 29 °F 24 °F (1981)
Degree Days  
Heating Degree Days 28    
Moisture  
Dew Point 18 °F    
Average Humidity 46    
Maximum Humidity 60    
Minimum Humidity 38    
Precipitation  
Precipitation 0.00 in - - ()
Sea Level Pressure  
Sea Level Pressure 29.83 in    
Wind  
Wind Speed 9 mph (WNW)    
Max Wind Speed 13 mph    
Max Gust Speed 26 mph    
Visibility 10 miles    
Events      
Averages and records for this station are not official NWS values.
T = Trace of Precipitation, MM = Missing Value Source: NWS Daily Summary

Daily Weather History Graph

Daily Weather History Graph

Search for Another Location

Airport or City:

Trip Planner

Search our weather history database for the weather conditions in past years. The results will help you decide how hot, cold, wet, or windy it might be!

Date:

Astronomy

Mar. 15, 2013 Rise Set
Actual Time 7:02 AM EDT 6:58 PM EDT
Civil Twilight 6:35 AM EDT 7:25 PM EDT
Nautical Twilight 6:03 AM EDT 7:58 PM EDT
Astronomical Twilight 5:30 AM EDT 8:30 PM EDT
Moon 8:48 AM EDT (3/15) 11:12 PM EDT (3/15)
Length of Visible Light 12h 50m
Length of Day
11h 55m
Waxing Crescent, 15% of the Moon is Illuminated
Mar 15
Waxing Crescent
Mar 19
First Quarter
Mar 27
Full
Apr 3
Last Quarter
Apr 10
New

Hourly Weather History & Observations

Time (EDT) Temp. Windchill Dew Point Humidity Pressure Visibility Wind Dir Wind Speed Gust Speed Precip Events Conditions
12:53 AM 34.0 °F 26.6 °F 10.9 °F 38% 29.90 in 10.0 mi NW 9.2 mph 17.3 mph N/A   Mostly Cloudy
1:53 AM 33.1 °F 25.5 °F 10.0 °F 38% 29.91 in 10.0 mi NW 9.2 mph 19.6 mph N/A   Partly Cloudy
2:53 AM 32.0 °F 23.6 °F 9.0 °F 38% 29.91 in 10.0 mi NW 10.4 mph 18.4 mph N/A   Clear
3:53 AM 32.0 °F 24.2 °F 9.0 °F 38% 29.91 in 10.0 mi NW 9.2 mph - N/A   Clear
4:53 AM 30.9 °F 22.2 °F 9.0 °F 40% 29.91 in 10.0 mi NW 10.4 mph 16.1 mph N/A   Clear
5:53 AM 30.0 °F 22.4 °F 7.0 °F 38% 29.92 in 10.0 mi NNW 8.1 mph - N/A   Clear
6:53 AM 30.0 °F 23.2 °F 9.0 °F 41% 29.94 in 10.0 mi NW 6.9 mph - N/A   Mostly Cloudy
7:53 AM 30.0 °F 24.1 °F 10.0 °F 43% 29.94 in 10.0 mi NW 5.8 mph - N/A   Mostly Cloudy
8:53 AM 30.9 °F 25.2 °F 10.9 °F 43% 29.94 in 10.0 mi WNW 5.8 mph - N/A   Mostly Cloudy
9:53 AM 33.1 °F 28.7 °F 12.9 °F 43% 29.93 in 10.0 mi Variable 4.6 mph - N/A   Mostly Cloudy
10:53 AM 36.0 °F 31.1 °F 15.1 °F 43% 29.90 in 10.0 mi Variable 5.8 mph - N/A   Overcast
11:53 AM 37.0 °F 32.4 °F 15.1 °F 41% 29.87 in 10.0 mi Variable 5.8 mph - N/A   Mostly Cloudy
12:53 PM 37.9 °F 30.0 °F 16.0 °F 41% 29.83 in 10.0 mi SSW 12.7 mph 17.3 mph N/A   Mostly Cloudy
1:53 PM 39.9 °F 33.4 °F 17.1 °F 40% 29.80 in 10.0 mi SW 10.4 mph 23.0 mph N/A   Mostly Cloudy
2:53 PM 42.1 °F 35.2 °F 23.0 °F 47% 29.76 in 10.0 mi WSW 12.7 mph 26.5 mph N/A   Overcast
3:53 PM 41.0 °F 33.9 °F 24.1 °F 51% 29.73 in 10.0 mi WSW 12.7 mph 25.3 mph N/A   Overcast
4:53 PM 41.0 °F 33.9 °F 26.1 °F 55% 29.72 in 10.0 mi SW 12.7 mph - N/A   Overcast
5:53 PM 43.0 °F 38.8 °F 26.1 °F 51% 29.71 in 10.0 mi WSW 6.9 mph - N/A   Mostly Cloudy
6:53 PM 43.0 °F 37.2 °F 27.0 °F 53% 29.72 in 10.0 mi West 10.4 mph 17.3 mph N/A   Overcast
7:53 PM 42.1 °F 36.6 °F 28.0 °F 58% 29.73 in 10.0 mi West 9.2 mph - N/A   Overcast
8:53 PM 42.1 °F 36.6 °F 28.9 °F 60% 29.74 in 10.0 mi WNW 9.2 mph 18.4 mph N/A   Scattered Clouds
9:53 PM 42.1 °F 37.1 °F 28.0 °F 58% 29.73 in 10.0 mi West 8.1 mph 19.6 mph N/A   Clear
10:53 PM 41.0 °F 34.7 °F 25.0 °F 53% 29.75 in 10.0 mi West 10.4 mph 19.6 mph N/A   Clear
11:53 PM 41.0 °F 34.7 °F 24.1 °F 51% 29.75 in 10.0 mi WNW 10.4 mph 21.9 mph N/A   Clear